NOAA 16 DEB, 41146

Orbit data source: Space-Track

NOAA 16 DEB, 41146 is space debris in SSO originally from a launch on Thu, 21 Sep 2000 UTC launched from the Air Force Western Test Range (AFWTR). Debris objects in space refer to the collection of defunct objects orbiting the Earth. Examples of debris include non-operational satellites, rocket bodies, and fragments generated from explosions, collisions, or faulty payload assembly.

Loading next visibility...
Identifier
41146, 2000-055CD
Orbit
SSO
Country
Flag of USUS
Related business
Manufacturer
Unknown
Mission
Spacecraft
Bus & Motor
Unknown
Mass
Unknown
Launch date (UTC)
2000-09-21 (26 years ago)
Launch vehicle
Unknown
Launch site
Air Force Western Test Range (AFWTR)
Object type
Payload
Rocket body
Debris
Shape & HBR
Unknown shape, 0.1 m
Radar Cross Section
Medium (>0.1 m² and <1 m²)

Expand to show TLE details & history
Last TLE update: 14 hours ago

TLE from 14 hours ago
0 NOAA 16 DEB
1 41146U 00055CD  26262.59247637  .00010244  00000-0  21793-2 0  9992
2 41146  98.8278  36.2241 0018494 168.6055 191.5565 14.59118316560243
Epoch: 2026-09-19T14:13Z
TLE epoch observation values (Epoch: 2026-09-19T14:13:09.958Z)
Latitude
-0.00001°
Longitude
-175.56619°
Altitude
711.808 km
Speed
7.493 km/s
True Right ascension
02h 24m 53s
True Declination
0° 00' 00"
Sunlit
Object was in full shadow at epoch
Visualization orbit readout
Latitude
Unknown
Longitude
Unknown
Altitude
Unknown
Speed
Unknown
Apparent Right ascension
Unknown
Apparent Declination
Unknown
Sunlit
N/A
Visualization observer readout
Local Sidereal Time
20:53:07
Azimuth
Unknown
Elevation
Unknown
Doppler factor
Unknown
Orbital elements
Apogee altitude
706.212 km
Perigee altitude
680.057 km
Semi-major axis
7,071.272 km
Eccentricity
0.00185
Inclination
98.8278°
RAAN
36.2241°
Arg. of periapsis
168.6055°
True anomaly
191.51414°
Mean anomaly
191.5565°
Eccentric anomaly
191.53531°
Mean motion
3.65003 °/min
Orbital period
98.63 mins
BSTAR
0.0021793
Loading maneuver chart data...
Computing Atmospheric mass density...

Documentation

Showing up to 5 results
|